RH
60 64 68 69 64 67 65 64 66 69 70 69 68 65 63 61 61 45 47 39 48 62 65 40 35 46 57 59 41 35 46 38 30 23 22 17 22 20 17 17 13 14 13 29 44
62 66 67 65 66 67 64 62 64 65 69 72 69 66 63 59 48 44 40 46 50 64 58 50 41 45 61 58 47 50 49 38 27 22 19 19 24 24 21 20 17 15 12 25 43
69 69 69 69 67 66 61 60 61 62 65 66 65 65 69 54 55 38 48 47 52 58 55 49 36 40 57 51 50 44 45 31 26 28 27 24 26 20 19 22 15 15 14 26 35
69 69 70 69 69 66 64 65 62 60 61 66 61 65 64 51 62 56 52 56 51 50 58 61 50 44 54 60 47 48 36 30 25 34 35 33 26 22 18 18 12 12 12 19 29
70 69 68 65 65 66 67 65 64 62 64 64 66 66 61 62 53 27 48 36 37 44 66 67 67 40 46 41 47 59 37 29 27 34 38 32 34 25 23 19 19 24 27 28 31
69 68 68 67 67 65 67 66 66 65 61 66 65 64 59 76 28 27 26 28 37 40 60 70 66 39 34 36 42 41 46 43 30 33 35 44 37 35 26 21 24 25 25 25 31
64 62 65 67 68 68 66 67 65 64 65 65 65 56 71 60 26 28 31 38 41 46 61 63 64 56 32 36 32 44 63 51 51 34 35 37 48 41 27 21 23 22 21 23 25
58 66 68 67 68 69 67 68 67 66 67 68 65 65 85 36 32 34 33 34 44 51 55 52 56 93 57 28 36 53 57 72 52 51 33 40 46 33 27 25 25 21 17 18 20
62 71 63 62 63 64 64 61 62 63 62 60 60 68 63 41 44 36 33 35 33 46 52 47 59 89 73 45 61 55 82 69 38 32 36 41 42 26 22 23 25 21 18 17 16
65 68 65 66 70 73 72 66 63 61 52 44 49 76 52 50 37 35 30 35 37 59 69 77 87 97 90 64 86 60 50 50 43 32 36 42 41 30 25 23 24 21 18 16 15
64 69 66 68 73 71 77 74 55 59 58 57 57 49 41 37 38 40 34 41 40 67 100 88 98 97 89 53 36 35 40 37 32 28 36 39 37 31 29 32 28 21 18 17 16
61 64 66 71 73 74 69 80 67 72 76 43 44 48 40 38 52 40 34 52 57 79 89 99 98 75 58 52 42 36 35 34 28 25 34 34 37 30 28 29 29 24 20 19 19
63 66 70 74 72 63 70 84 69 70 94 47 45 50 49 44 52 48 43 45 53 69 100 96 75 61 53 62 56 54 42 37 35 32 32 32 34 35 28 26 28 25 21 18 18
67 70 75 76 73 66 76 56 68 71 89 74 89 87 64 57 62 39 43 45 62 70 99 99 78 60 65 75 54 70 40 37 36 41 49 34 31 37 31 34 31 27 26 23 23
67 73 74 75 73 60 58 63 67 78 97 99 94 70 66 82 95 54 45 64 72 74 97 94 68 64 59 80 63 92 55 44 44 45 34 39 40 23 24 31 30 27 26 27 25
70 75 75 62 77 51 56 72 82 100 96 100 90 98 98 90 95 77 78 82 86 78 87 88 61 50 51 48 48 65 71 75 69 56 80 37 38 28 32 29 30 32 34 35 35
75 76 69 54 66 58 66 78 100 94 66 100 99 97 100 90 95 94 100 100 100 100 100 94 99 89 64 94 86 80 97 100 100 98 59 31 40 29 27 25 32 38 38 38 40
78 76 59 50 56 62 73 90 92 68 97 75 91 96 100 93 91 99 100 96 94 75 93 88 98 100 90 73 94 99 94 99 96 66 48 45 52 31 26 28 32 35 38 41 40
77 50 55 54 56 65 81 98 94 99 98 100 100 99 89 86 93 100 94 83 70 72 77 81 99 96 89 74 78 100 100 66 96 52 56 48 36 36 34 34 38 40 43 44 44
64 54 57 55 58 75 77 95 98 94 96 100 96 55 83 98 100 88 84 67 58 46 44 78 96 99 95 76 83 91 66 88 90 94 66 48 38 35 40 39 36 40 42 44 45
61 63 58 55 69 66 99 98 97 88 91 99 66 60 69 76 52 59 69 57 44 44 40 47 61 99 97 97 96 97 99 85 65 55 68 54 36 30 35 34 36 34 34 35 37
68 91 53 60 85 84 92 86 85 72 73 78 68 50 49 46 52 55 62 52 42 41 48 46 53 90 76 56 61 62 65 61 78 70 63 71 44 30 31 32 33 34 35 33 36
68 70 51 53 100 91 65 69 71 70 61 60 52 48 44 46 55 52 53 45 45 46 42 39 55 80 72 54 50 54 50 46 46 63 93 69 42 31 30 32 30 32 31 34 36
71 100 72 64 89 96 94 77 74 62 58 53 49 42 41 45 42 54 53 54 48 44 62 45 43 52 57 58 54 74 56 48 57 85 57 43 40 38 34 34 31 29 29 31 35
68 89 88 99 80 86 87 78 81 65 52 48 47 47 46 48 47 54 50 47 43 54 41 37 55 53 52 51 52 60 62 54 93 49 54 37 34 34 33 32 29 26 29 34 36
93 97 83 89 68 76 85 80 91 66 62 58 58 49 46 57 56 48 49 46 47 41 42 40 55 50 57 53 57 67 55 54 53 48 47 42 40 29 28 30 35 36 38 38 36
65 73 94 74 65 78 98 98 91 71 58 59 61 52 60 66 54 48 43 42 44 44 46 45 46 49 76 52 58 70 54 54 51 47 45 52 38 37 42 42 43 42 42 40 41
Wind_Speed
20 19 19 19 19 18 16 16 16 16 15 15 15 14 15 13 14 18 19 15 19 16 10 4 13 13 12 10 16 12 13 19 26 26 20 11 16 15 17 19 14 11 15 10 14
21 21 20 20 17 16 17 17 18 16 17 16 15 15 15 13 17 21 21 21 19 16 18 12 13 15 13 15 12 13 16 25 20 19 16 13 9 14 13 17 20 14 11 5 11
21 21 21 19 18 16 17 17 18 18 17 16 14 15 12 11 14 8 7 24 23 22 17 17 14 18 20 14 20 21 21 22 20 8 7 9 10 15 19 17 17 18 15 10 12
22 22 19 18 19 19 19 18 18 18 17 18 17 13 8 9 7 6 15 22 19 18 19 18 18 20 22 22 20 19 26 24 17 2 4 9 8 17 15 17 13 17 15 14 12
24 21 20 18 19 18 19 18 19 19 18 16 16 12 8 15 17 16 15 10 3 9 18 22 19 22 26 22 17 20 21 20 17 4 6 8 11 15 16 6 2 5 2 8 11
22 21 21 21 20 19 19 19 19 20 18 15 12 12 12 18 13 16 15 9 6 5 5 11 13 22 20 24 25 10 20 10 16 13 7 7 11 6 14 12 10 10 9 8 7
21 22 21 21 20 20 19 20 19 18 17 17 17 11 13 18 8 4 3 2 2 6 4 8 19 18 23 25 18 18 8 17 13 16 13 12 14 22 17 16 15 15 13 9 7
26 23 22 21 21 20 21 21 19 18 18 17 16 12 11 9 15 20 18 17 9 5 1 8 12 8 19 16 19 14 15 12 19 17 16 11 24 20 16 17 16 19 17 14 13
26 23 23 24 23 22 21 21 20 18 18 18 16 13 12 5 13 16 17 17 17 10 4 5 10 6 17 22 16 16 10 21 18 24 17 20 21 14 12 19 19 19 16 14 13
26 24 24 25 24 24 22 20 20 16 8 6 7 6 12 7 6 4 8 9 13 9 2 1 6 10 18 19 17 26 29 23 24 17 25 22 20 6 10 15 15 20 22 19 17
27 26 26 26 27 23 14 5 6 5 6 7 6 12 4 9 4 6 4 7 10 7 8 8 10 14 17 31 27 20 20 22 21 24 20 25 20 21 10 10 15 16 14 15 17
26 26 26 28 23 9 3 2 6 6 9 12 16 17 17 11 13 10 8 8 13 11 9 7 12 23 28 23 24 19 21 20 17 15 12 15 23 22 20 18 14 15 14 14 14
25 26 27 25 14 4 6 3 2 4 5 6 7 10 12 14 19 17 10 16 12 12 12 15 15 24 26 23 24 17 18 16 18 13 16 11 16 21 22 18 18 20 19 17 15
26 26 26 18 5 5 2 4 1 5 5 6 2 3 6 8 10 16 9 11 7 16 9 8 30 31 25 23 21 14 15 16 15 14 14 17 8 25 21 18 20 16 14 14 16
27 28 23 10 7 4 3 3 5 2 5 6 3 3 3 4 4 10 9 10 14 13 5 10 17 27 23 21 21 3 5 9 14 14 13 17 10 5 16 15 17 15 12 9 8
27 28 20 3 3 2 3 1 3 5 5 2 2 4 5 8 5 8 9 4 5 8 13 2 4 10 12 13 20 12 3 4 10 7 7 15 16 14 13 16 14 10 9 8 7
29 27 11 4 6 4 4 3 4 5 6 6 4 3 3 5 6 3 3 5 3 7 5 7 5 6 8 9 5 7 8 4 5 7 6 19 14 2 9 9 11 12 11 10 9
29 23 2 4 5 5 4 3 6 7 5 6 4 4 5 4 5 3 4 6 13 3 3 6 6 1 0 5 4 6 7 3 6 10 12 2 9 6 10 8 10 10 10 9 9
26 4 3 1 6 5 4 3 5 5 5 8 7 4 7 5 5 0 8 7 5 1 0 6 4 2 2 10 8 5 5 5 3 3 5 9 5 6 9 11 11 10 9 9 8
8 6 3 5 5 4 3 3 3 4 5 1 4 5 2 3 4 6 6 7 5 3 6 5 7 2 3 8 9 1 9 5 2 4 5 8 9 5 16 16 13 12 10 8 6
4 5 4 7 4 2 3 4 4 7 5 3 7 4 5 3 6 5 6 5 6 4 5 10 2 4 10 4 8 5 2 3 5 4 3 7 4 7 16 16 14 11 9 8 6
4 4 6 6 3 2 3 5 5 8 3 4 6 6 8 8 10 8 8 7 8 5 6 4 6 5 7 8 10 7 10 9 5 5 2 5 5 5 14 14 13 10 6 4 3
7 4 3 8 4 5 7 4 2 7 9 6 6 8 5 6 3 6 6 5 5 5 5 1 6 6 4 3 2 4 7 3 3 2 2 3 6 3 15 14 9 7 4 4 4
4 5 5 4 0 4 6 6 8 3 3 4 5 4 4 7 6 5 5 6 7 6 6 3 3 4 4 7 7 5 9 8 2 2 4 2 10 10 16 14 9 6 8 4 5
5 3 4 5 5 11 6 7 10 7 7 7 3 7 5 3 5 4 4 4 5 2 3 3 6 9 9 8 5 3 6 9 4 2 3 6 8 9 13 11 10 7 5 5 6
4 4 4 5 9 9 10 8 9 12 9 5 7 8 9 6 7 3 1 3 4 3 3 3 4 3 4 3 2 1 3 8 8 9 4 2 4 3 3 3 6 9 9 8 8
5 3 3 8 7 6 4 6 8 15 2 5 6 5 8 9 5 4 3 4 4 4 3 2 5 4 2 2 2 5 8 10 7 5 8 8 3 4 3 5 5 7 6 7 5
Wind_Direction
325 328 321 316 318 313 315 309 304 296 289 288 288 289 286 288 292 267 258 239 219 243 227 156 188 199 226 231 219 223 238 234 231 235 240 231 212 216 245 251 224 189 258 76 119
324 328 320 323 319 313 314 312 308 304 297 287 282 280 284 294 288 277 268 250 238 229 227 228 198 188 208 218 203 219 223 229 235 240 243 233 263 215 215 236 235 226 220 124 142
331 324 320 321 316 311 308 304 305 299 297 287 280 282 282 297 300 292 354 224 219 225 235 233 224 192 211 217 212 210 236 224 245 333 337 231 210 236 230 236 220 213 193 185 175
326 324 323 322 318 311 307 307 299 296 297 289 278 269 254 249 257 114 63 37 204 225 227 229 221 210 215 215 211 224 229 250 235 134 276 251 222 230 236 227 230 229 235 170 204
326 327 321 324 317 313 304 298 296 298 292 285 279 265 247 237 236 261 280 327 345 260 234 220 220 207 215 216 227 228 242 220 242 270 221 252 226 228 234 214 194 90 206 195 209
328 329 328 322 321 312 303 299 296 294 289 288 280 262 239 255 261 260 268 264 229 267 260 253 219 215 221 223 210 236 229 261 237 218 219 245 232 222 237 209 197 191 200 197 212
334 330 328 324 317 310 306 302 297 295 299 289 283 265 258 241 220 216 86 300 214 205 232 310 236 228 220 215 223 210 216 232 238 234 211 232 257 221 232 228 215 220 218 205 198
333 336 328 324 319 313 309 304 300 297 288 283 277 271 258 258 248 261 262 245 184 157 231 305 307 263 250 222 201 219 232 239 211 234 222 197 242 228 212 239 237 232 229 223 216
336 332 331 324 318 309 304 302 299 287 282 275 265 242 260 102 225 244 252 244 226 211 224 284 307 271 234 215 198 212 213 222 217 206 214 202 240 241 209 226 235 244 231 227 224
336 332 333 324 318 308 299 299 290 288 241 231 237 185 243 224 210 224 245 215 215 157 290 5 220 227 206 199 194 194 209 199 218 194 211 209 236 184 230 223 236 238 242 237 230
333 335 330 326 323 321 310 322 253 209 214 235 206 223 92 205 193 208 217 182 180 155 172 223 208 216 186 200 205 205 203 226 204 215 196 226 227 232 188 222 236 236 225 233 236
336 331 328 329 333 0 54 201 32 358 292 266 261 258 268 288 268 242 226 219 177 197 165 260 240 213 196 203 216 213 222 210 221 188 208 233 226 232 223 222 220 236 238 235 230
338 330 331 331 332 307 10 31 28 351 253 281 253 254 258 232 243 244 218 219 218 213 169 223 266 214 199 192 204 216 216 214 197 201 209 249 234 223 229 226 234 240 250 251 250
335 331 333 334 278 20 11 8 235 246 274 170 223 247 237 218 217 215 200 222 205 216 154 241 252 184 176 190 191 204 207 209 200 192 207 207 250 202 210 215 222 226 238 244 246
333 331 336 331 306 339 342 13 320 281 278 122 165 194 241 229 355 186 172 188 208 151 125 236 172 183 186 182 173 152 296 188 193 206 208 186 243 208 191 199 210 222 220 226 227
332 330 333 309 249 315 302 18 207 230 31 79 249 184 195 199 216 122 184 68 322 163 194 210 29 168 175 187 186 138 92 70 229 226 241 207 214 179 178 202 191 182 180 171 170
330 326 313 310 331 338 287 255 257 328 2 13 340 359 299 56 80 105 135 169 222 174 161 80 27 6 131 92 86 113 144 135 177 195 226 211 198 6 123 148 168 168 159 155 159
329 317 189 288 321 308 279 266 359 348 355 355 330 333 39 348 77 46 119 202 231 190 103 100 136 347 53 155 149 144 153 234 223 191 171 209 220 174 136 151 138 145 147 150 154
322 297 265 339 324 291 284 347 350 333 326 329 304 34 19 12 15 259 178 107 77 274 156 123 93 76 168 134 157 142 190 81 277 301 156 170 167 143 164 166 160 157 162 161 150
317 308 287 354 327 250 290 30 293 284 308 297 350 12 68 24 278 177 44 2 89 263 287 95 105 42 100 110 46 55 144 122 237 244 196 183 182 148 175 170 171 161 169 160 148
307 288 53 340 243 258 24 350 298 280 263 297 354 38 81 329 20 67 78 90 37 52 87 141 82 129 176 185 147 149 124 190 257 250 257 147 140 62 167 169 166 165 159 158 163
322 308 13 336 15 18 355 326 304 303 205 275 272 12 6 6 26 58 72 47 3 332 35 23 102 81 63 101 140 214 172 220 249 178 34 304 86 306 151 155 141 134 141 149 160
342 302 345 321 27 8 343 356 245 347 1 360 8 12 4 6 38 58 71 24 6 13 21 146 124 114 115 131 157 217 169 198 108 2 235 292 106 212 145 146 149 137 139 187 186
353 332 339 37 4 333 338 352 352 94 324 356 356 304 6 32 37 106 93 49 35 60 353 333 67 3 96 75 129 185 196 192 170 234 163 47 128 172 170 182 178 197 234 214 196
28 28 5 335 340 334 350 346 338 24 347 6 54 17 348 17 68 80 69 129 79 7 33 14 81 76 73 83 78 172 197 196 155 254 317 109 122 150 184 193 219 255 262 251 220
12 358 337 290 289 332 8 10 312 358 1 33 33 19 36 57 3 39 104 332 30 77 45 3 112 131 93 79 31 63 198 201 214 233 243 136 140 134 176 213 240 254 253 242 223
10 300 276 287 342 344 10 324 303 327 79 24 330 5 56 39 23 354 35 38 26 347 58 24 149 203 119 147 172 197 206 196 191 207 213 215 192 120 191 229 251 254 236 220 199